Home   Weather   Vernier   Past weeks

Flag for Switzerland Past Weather in Vernier, Geneva, Switzerland — Yesterday and Last 2 Weeks

Now
52 °F

Cool.


Feels Like: 52 °F
Forecast: 52 / 72 °F
Wind: 1 mph from North

Location: Geneva Cointrin Airport

Current Time: Sep 29, 2016 at 3:50:32 AM

Latest Report: Sep 29, 2016 at 3:20 AM


Visibility: 4 mi

Pressure: 30.39 "Hg

Humidity: 100%

Dew Point: 52 °F

Location of VernierLocation

Past Weather in Vernier — Graph

°F

Vernier Temperature Yesterday

Maximum temperature yesterday: 73 °F (at 3:50 PM)
Minimum temperature yesterday: 50 °F (at 4:20 AM)
Average temperature yesterday: 60 °F

High & Low Weather Summary for the Past Weeks

 TemperatureHumidityPressure
High82 °F (Sep 14, 3:20 PM)100% (Sep 15, 8:20 AM)30.48 "Hg (Sep 15, 8:20 AM)
Low46 °F (Sep 22, 5:20 AM)34% (Sep 25, 4:50 PM)29.80 "Hg (Sep 15, 12:50 AM)
Average60 °F79%30.11 "Hg
* Reported Sep 14 2:20 AM — Sep 29 2:50 AM, Vernier, Weather by CustomWeather, © 2016

Note: Actual official high and low records may vary slightly from our data, if they occured in-between our weather recording intervals... More about our weather records

Advertising

Vernier Weather History for the Previous 24 Hours

Scroll right to see more
 ConditionsComfort  
Time TempWeatherWind HumidityBarometerVisibility
2:50 AM
Thu, Sep 29
52 °FCool.2 mph100%30.39 "Hg5 mi
2:20 AM54 °FCool.2 mph94%30.39 "Hg6 mi
1:50 AM54 °FCool.3 mph94%30.39 "HgN/A
1:20 AM54 °FCool.1 mph94%30.39 "HgN/A
12:50 AM54 °FCool.2 mph100%30.39 "HgN/A
12:20 AM55 °FCool.1 mph94%30.42 "HgN/A
11:50 PM
Wed, Sep 28
55 °FCool.1 mph94%30.42 "HgN/A
11:20 PM55 °FClear.1 mph94%30.42 "Hg10 mi
10:50 PM57 °FClear.1 mph94%30.39 "Hg10 mi
10:20 PM57 °FClear.2 mph94%30.42 "Hg10 mi
9:50 PM59 °FClear.1 mph88%30.42 "Hg10 mi
9:20 PM61 °FClear.1 mph83%30.42 "Hg10 mi
8:50 PM61 °FClear.1 mph83%30.42 "Hg10 mi
8:20 PM63 °FPassing clouds.2 mph77%30.39 "HgN/A
7:50 PM64 °FClear.2 mph73%30.39 "Hg10 mi
7:20 PM66 °FClear.5 mph68%30.39 "Hg10 mi
6:50 PM68 °FSunny.3 mph69%30.39 "Hg10 mi
6:20 PM72 °FScattered clouds.5 mph61%30.39 "HgN/A
5:50 PM73 °FScattered clouds.6 mph53%30.39 "HgN/A
5:20 PM73 °FScattered clouds.5 mph50%30.39 "HgN/A
4:50 PM73 °FPassing clouds.3 mph47%30.39 "HgN/A
4:20 PM73 °FPassing clouds.2 mph50%30.39 "HgN/A
3:50 PM73 °FPassing clouds.5 mph50%30.39 "HgN/A
3:20 PM72 °FPassing clouds.5 mph53%30.42 "HgN/A
2:50 PM72 °FPassing clouds.7 mph57%30.42 "HgN/A
2:20 PM70 °FPassing clouds.5 mph60%30.42 "HgN/A
1:50 PM70 °FPassing clouds.5 mph60%30.45 "HgN/A
1:20 PM70 °FPassing clouds.3 mph64%30.45 "HgN/A
12:50 PM68 °FPassing clouds.3 mph64%30.45 "HgN/A
12:20 PM66 °FPassing clouds.1 mph68%30.48 "HgN/A
11:50 AM64 °FPassing clouds.2 mph73%30.48 "HgN/A
11:20 AM64 °FPassing clouds.2 mph68%30.48 "HgN/A
10:50 AM63 °FPassing clouds.2 mph73%30.48 "HgN/A
10:20 AM61 °FScattered clouds.2 mph83%30.48 "HgN/A
9:50 AM59 °FScattered clouds.1 mph82%30.48 "HgN/A
9:20 AM55 °FPartly sunny.2 mph88%30.48 "HgN/A
8:50 AM52 °FCool.1 mph94%30.45 "Hg6 mi
8:20 AM52 °FSunny.1 mph94%30.45 "Hg10 mi
7:50 AM50 °FClear.1 mph94%30.45 "Hg6 mi
7:20 AM50 °FFog.1 mph94%30.42 "Hg5 mi
6:50 AM50 °FClear.1 mph94%30.42 "Hg10 mi
6:20 AM50 °FClear.2 mph100%30.42 "Hg6 mi
5:50 AM50 °FClear.2 mph100%30.42 "Hg6 mi
5:20 AM50 °FCool.2 mph100%30.42 "Hg5 mi
4:50 AM50 °FCool.2 mph100%30.42 "Hg4 mi
4:20 AM50 °FCool.1 mph100%30.42 "Hg6 mi
3:50 AM52 °FCool.No wind94%30.42 "HgN/A
3:20 AM52 °FCool.1 mph100%30.42 "HgN/A
Weather by CustomWeather, © 2016

See weather overviewHow to use our weather pages